{"data":{"norad_id":55353,"epoch":"2026-05-24T12:31:22.851264Z","epoch_age_seconds":116652,"freshness":"FRESH","line1":"1 55353U 23013Y   26144.52179226  .00001057  00000+0  47941-4 0  9992","line2":"2 55353  43.0025 231.5072 0001343 283.3420  76.7282 15.27566694183319","mean_motion":15.27566694,"eccentricity":0.0001343,"inclination_deg":43.0025,"raan_deg":231.5072,"arg_perigee_deg":283.342,"mean_anomaly_deg":76.7282,"bstar":4.7941e-5,"rev_number":18331,"period_min":94.267569832208,"perigee_km":482.16747663603,"apogee_km":484.01040192332,"semimajor_km":6861.2259392797,"source":"CELESTRAK","updated_at":"2026-05-25T13:38:17.764366Z"}}